• In Deutschland
  • Länderverzeichnis
  • Für 7 Tage
  • Wassertemperatur
  • Satellitenkarten
  • Wetterkarte
  • Widgets
  • user-avatar
    Anmelden

    Stündliche Wetter Ausleben

    Heute, 18 Januar, Donnerstag

    Zeit Temperatur Niederschläge Wind Luftdruck Luftfeuchtigkeit
    00:00 -1°C° 0 mm 7 m/S 739 mmHg 82%
    01:00 -2°C° 0 mm 6 m/S 740 mmHg 84%
    02:00 -2°C° 0 mm 6 m/S 740 mmHg 84%
    03:00 -2°C° 0 mm 6 m/S 740 mmHg 84%
    04:00 -2°C° 0 mm 6 m/S 739 mmHg 84%
    05:00 -1°C° 0,1 mm 5 m/S 738 mmHg 84%
    06:00 -1°C° 0,1 mm 5 m/S 737 mmHg 84%
    07:00 -1°C° 0,1 mm 5 m/S 737 mmHg 84%
    08:00 -1°C° 1,1 mm 6 m/S 735 mmHg 85%
    09:00 -1°C° 1,1 mm 6 m/S 733 mmHg 86%
    10:00 0°C° 1,1 mm 7 m/S 731 mmHg 87%
    11:00 +1°C° 0,8 mm 8 m/S 729 mmHg 84%
    12:00 +2°C° 0,8 mm 9 m/S 728 mmHg 82%
    13:00 +5°C° 0,8 mm 10 m/S 726 mmHg 80%
    14:00 +3°C° 0,3 mm 11 m/S 726 mmHg 77%
    15:00 +3°C° 0,3 mm 13 m/S 727 mmHg 75%
    16:00 +1°C° 0,3 mm 14 m/S 727 mmHg 73%
    17:00 0°C° 0,1 mm 13 m/S 729 mmHg 74%
    18:00 -1°C° 0,1 mm 12 m/S 731 mmHg 76%
    19:00 -1°C° 0,1 mm 11 m/S 733 mmHg 77%
    20:00 -1°C° 0 mm 9 m/S 734 mmHg 80%
    21:00 -1°C° 0 mm 8 m/S 735 mmHg 82%
    22:00 -1°C° 0 mm 6 m/S 737 mmHg 84%
    23:00 0°C° 0 mm 5 m/S 737 mmHg 86%

    Morgen, 19 Januar, Freitag

    Zeit Temperatur Niederschläge Wind Luftdruck Luftfeuchtigkeit
    00:00 -1°C° 0 mm 5 m/S 737 mmHg 88%
    01:00 -1°C° 0 mm 4 m/S 738 mmHg 89%
    02:00 -2°C° 0 mm 4 m/S 738 mmHg 90%
    03:00 -1°C° 0 mm 3 m/S 738 mmHg 91%
    04:00 -1°C° 0 mm 3 m/S 738 mmHg 92%
    05:00 -1°C° 0,1 mm 3 m/S 739 mmHg 92%
    06:00 -1°C° 0,1 mm 3 m/S 739 mmHg 92%
    07:00 -1°C° 0,1 mm 3 m/S 739 mmHg 92%
    08:00 0°C° 0,3 mm 3 m/S 740 mmHg 92%
    09:00 0°C° 0,3 mm 3 m/S 741 mmHg 91%
    10:00 0°C° 0,3 mm 4 m/S 741 mmHg 90%
    11:00 0°C° 0,1 mm 4 m/S 741 mmHg 88%
    12:00 0°C° 0,1 mm 5 m/S 742 mmHg 86%
    13:00 +1°C° 0,1 mm 6 m/S 742 mmHg 83%
    14:00 +1°C° 0 mm 5 m/S 742 mmHg 83%
    15:00 0°C° 0 mm 5 m/S 742 mmHg 83%
    16:00 0°C° 0 mm 4 m/S 743 mmHg 83%
    17:00 -1°C° 0 mm 4 m/S 743 mmHg 84%
    18:00 -1°C° 0 mm 4 m/S 743 mmHg 86%
    19:00 -1°C° 0 mm 3 m/S 743 mmHg 87%
    20:00 -1°C° 0 mm 3 m/S 743 mmHg 87%
    21:00 -1°C° 0 mm 3 m/S 743 mmHg 87%
    22:00 -1°C° 0 mm 3 m/S 743 mmHg 87%
    23:00 -1°C° 0 mm 3 m/S 742 mmHg 88%

    übermorgen, 20 Januar, Samstag

    Zeit Temperatur Niederschläge Wind Luftdruck Luftfeuchtigkeit
    00:00 -2°C° 0 mm 3 m/S 742 mmHg 88%
    01:00 -2°C° 0 mm 3 m/S 742 mmHg 89%
    02:00 -2°C° 0 mm 3 m/S 742 mmHg 89%
    03:00 -2°C° 0 mm 3 m/S 742 mmHg 89%
    04:00 -2°C° 0 mm 3 m/S 742 mmHg 89%
    05:00 -2°C° 0 mm 3 m/S 742 mmHg 89%
    06:00 -3°C° 0 mm 4 m/S 742 mmHg 89%
    07:00 -3°C° 0 mm 4 m/S 742 mmHg 88%
    08:00 -2°C° 0 mm 4 m/S 742 mmHg 87%
    09:00 -2°C° 0 mm 5 m/S 742 mmHg 85%
    10:00 -2°C° 0 mm 5 m/S 743 mmHg 83%
    11:00 -1°C° 0 mm 5 m/S 743 mmHg 81%
    12:00 0°C° 0 mm 5 m/S 742 mmHg 79%
    13:00 0°C° 0 mm 5 m/S 742 mmHg 77%
    14:00 0°C° 0 mm 5 m/S 742 mmHg 78%
    15:00 0°C° 0 mm 5 m/S 742 mmHg 80%
    16:00 -1°C° 0 mm 4 m/S 742 mmHg 81%
    17:00 -1°C° 0 mm 4 m/S 743 mmHg 83%
    18:00 -1°C° 0 mm 4 m/S 743 mmHg 84%
    19:00 -1°C° 0 mm 3 m/S 743 mmHg 86%
    20:00 -2°C° 0 mm 4 m/S 744 mmHg 87%
    21:00 -2°C° 0 mm 4 m/S 744 mmHg 88%
    22:00 -2°C° 0 mm 4 m/S 745 mmHg 89%
    23:00 -2°C° 0 mm 4 m/S 745 mmHg 89%

    21 Januar, Sonntag

    Zeit Temperatur Niederschläge Wind Luftdruck Luftfeuchtigkeit
    00:00 -3°C° 0 mm 4 m/S 745 mmHg 90%
    01:00 -3°C° 0 mm 4 m/S 746 mmHg 90%
    02:00 -3°C° 0 mm 4 m/S 746 mmHg 91%
    03:00 -3°C° 0 mm 4 m/S 747 mmHg 91%
    04:00 -3°C° 0 mm 4 m/S 747 mmHg 91%
    05:00 -3°C° 0 mm 4 m/S 748 mmHg 91%
    06:00 -3°C° 0 mm 4 m/S 748 mmHg 91%
    07:00 -2°C° 0 mm 3 m/S 749 mmHg 91%
    08:00 -1°C° 0 mm 3 m/S 750 mmHg 90%
    09:00 -1°C° 0 mm 3 m/S 750 mmHg 88%
    10:00 -1°C° 0 mm 3 m/S 751 mmHg 87%
    11:00 0°C° 0 mm 3 m/S 751 mmHg 85%
    12:00 +1°C° 0 mm 2 m/S 751 mmHg 83%
    13:00 +2°C° 0 mm 2 m/S 751 mmHg 81%
    14:00 +1°C° 0 mm 2 m/S 751 mmHg 83%
    15:00 +1°C° 0 mm 2 m/S 751 mmHg 85%
    16:00 +1°C° 0 mm 2 m/S 751 mmHg 86%
    17:00 +1°C° 0 mm 2 m/S 751 mmHg 87%
    18:00 -1°C° 0 mm 2 m/S 751 mmHg 88%
    19:00 -1°C° 0 mm 2 m/S 750 mmHg 89%
    20:00 -1°C° 0 mm 3 m/S 750 mmHg 89%
    21:00 -1°C° 0 mm 3 m/S 750 mmHg 88%
    22:00 -1°C° 0 mm 3 m/S 749 mmHg 88%
    23:00 -1°C° 0,1 mm 3 m/S 749 mmHg 87%

    22 Januar, Montag

    Zeit Temperatur Niederschläge Wind Luftdruck Luftfeuchtigkeit
    00:00 -1°C° 0,1 mm 3 m/S 749 mmHg 87%
    01:00 -2°C° 0,1 mm 4 m/S 749 mmHg 86%
    02:00 -1°C° 0,1 mm 3 m/S 748 mmHg 87%
    03:00 -1°C° 0,1 mm 3 m/S 748 mmHg 88%
    04:00 -1°C° 0,1 mm 3 m/S 748 mmHg 88%
    05:00 0°C° 0,1 mm 3 m/S 748 mmHg 89%
    06:00 0°C° 0,1 mm 3 m/S 748 mmHg 90%
    07:00 0°C° 0,1 mm 3 m/S 748 mmHg 91%
    08:00 +1°C° 0 mm 2 m/S 749 mmHg 91%
    09:00 +1°C° 0 mm 2 m/S 749 mmHg 92%
    10:00 +2°C° 0 mm 2 m/S 749 mmHg 92%
    11:00 +3°C° 0 mm 2 m/S 749 mmHg 92%
    12:00 +4°C° 0 mm 2 m/S 749 mmHg 92%
    13:00 +3°C° 0 mm 3 m/S 749 mmHg 93%
    14:00 +4°C° 0 mm 2 m/S 749 mmHg 93%
    15:00 +4°C° 0 mm 2 m/S 749 mmHg 94%
    16:00 +4°C° 0 mm 2 m/S 749 mmHg 95%
    17:00 +4°C° 0,4 mm 2 m/S 749 mmHg 95%
    18:00 +4°C° 0,4 mm 2 m/S 749 mmHg 96%
    19:00 +3°C° 0,4 mm 3 m/S 749 mmHg 96%
    20:00 +4°C° 0,7 mm 3 m/S 748 mmHg 95%
    21:00 +4°C° 0,7 mm 3 m/S 748 mmHg 95%
    22:00 +5°C° 0,7 mm 4 m/S 748 mmHg 95%
    23:00 +6°C° 0,4 mm 4 m/S 748 mmHg 94%

    23 Januar, Dienstag

    Zeit Temperatur Niederschläge Wind Luftdruck Luftfeuchtigkeit
    00:00 +6°C° 0,4 mm 5 m/S 748 mmHg 93%
    01:00 +7°C° 0,4 mm 5 m/S 748 mmHg 92%
    02:00 +7°C° 0 mm 5 m/S 748 mmHg 92%
    03:00 +7°C° 0 mm 5 m/S 748 mmHg 92%
    04:00 +8°C° 0 mm 5 m/S 748 mmHg 92%
    05:00 +7°C° 0 mm 5 m/S 749 mmHg 91%
    06:00 +7°C° 0 mm 5 m/S 749 mmHg 91%
    07:00 +7°C° 0 mm 5 m/S 750 mmHg 90%
    08:00 +7°C° 0 mm 5 m/S 750 mmHg 88%
    09:00 +7°C° 0 mm 6 m/S 751 mmHg 86%
    10:00 +8°C° 0 mm 6 m/S 751 mmHg 85%
    11:00 +8°C° 0 mm 6 m/S 752 mmHg 83%
    12:00 +8°C° 0 mm 6 m/S 752 mmHg 82%
    13:00 +9°C° 0 mm 7 m/S 752 mmHg 80%
    14:00 +9°C° 0 mm 6 m/S 753 mmHg 81%
    15:00 +8°C° 0 mm 6 m/S 753 mmHg 83%
    16:00 +8°C° 0 mm 5 m/S 754 mmHg 84%
    17:00 +8°C° 0,1 mm 5 m/S 754 mmHg 86%
    18:00 +7°C° 0,1 mm 4 m/S 755 mmHg 88%
    19:00 +7°C° 0,1 mm 4 m/S 756 mmHg 90%
    20:00 +7°C° 0 mm 4 m/S 756 mmHg 91%
    21:00 +7°C° 0 mm 3 m/S 756 mmHg 92%
    22:00 +7°C° 0 mm 3 m/S 757 mmHg 93%
    23:00 +7°C° 0 mm 3 m/S 757 mmHg 93%
    Mehr zeigen